COSMOS 2251 DEB, 37532

Orbit data source: Space-Track

COSMOS 2251 DEB, 37532 is space debris in LEO originally from a launch on Wed, 16 Jun 1993 UTC launched from the Plesetsk Missile And Space Complex (PKMTR). The debris from Iridium 33, an American commercial communications satellite, has been tracked extensively since its accidental collision with the defunct Russian satellite Cosmos 2251 in 2009. This event, occurring at high speed in low Earth orbit (LEO), generated thousands of pieces of space debris, significantly increasing the risk of further collisions. The Iridium 33 debris cloud has impacted space traffic management and orbital debris mitigation strategies, making it a subject of ongoing study in space situational awareness.

Loading next visibility...
Identifier
37532, 1993-036BNM
Orbit
LEO
Country
Flag of CISCIS
Related business
Manufacturer
Unknown
Mission
Spacecraft
Bus & Motor
Unknown
Mass
Unknown
Launch date (UTC)
1993-06-16 (33 years ago)
Launch vehicle
Unknown
Launch site
Plesetsk Missile And Space Complex (PKMTR)
Object type
Payload
Rocket body
Debris
Shape & HBR
Unknown shape, 0.1 m
Radar Cross Section
Small (<0.1 m²)

Expand to show TLE details & history
Last TLE update: 1 day ago

TLE from 1 day ago
0 COSMOS 2251 DEB
1 37532U 93036BNM 26036.20988953  .00001025  00000-0  31666-3 0  9995
2 37532  74.0502 114.7677 0015924 211.1023 180.0700 14.42523934857018
Epoch: 2026-02-05T05:02Z
TLE epoch observation values (Epoch: 2026-02-05T05:02:14.455Z)
Latitude
29.90445°
Longitude
-86.74816°
Altitude
764.957 km
Speed
7.469 km/s
True Right ascension
08h 16m 42s
True Declination
29° 45' 22"
Sunlit
Object was in full shadow at epoch
Visualization orbit readout
Latitude
Unknown
Longitude
Unknown
Altitude
Unknown
Speed
Unknown
Apparent Right ascension
Unknown
Apparent Declination
Unknown
Sunlit
N/A
Visualization observer readout
Local Sidereal Time
11:06:18
Azimuth
Unknown
Elevation
Unknown
Doppler factor
Unknown
Orbital elements
Apogee altitude
759.134 km
Perigee altitude
736.44 km
Semi-major axis
7,125.924 km
Eccentricity
0.00159
Inclination
74.0502°
RAAN
114.7677°
Arg. of periapsis
211.1023°
True anomaly
180.06978°
Mean anomaly
180.07°
Eccentric anomaly
180.06989°
Mean motion
3.60812 °/min
Orbital period
99.77 mins
BSTAR
0.00031666

Documentation

Showing up to 5 results
|